Overview Statistics Trail Chart Weather Telemetry Raw packets
 

This is the latest recevied weather packets stored in our database for station/object W6JCZ-13. If no packets are shown the sender has not sent any weather packets the latest 10 day(s).

<< 53 54 55 56 57 58 >>
Time Temp. Humidity Pressure Rain* Wind** Luminosity Snow
1787808616 22.22° C 61% 1010.1 hPa 0 mm - - -
1787808016 22.78° C 60% 1010.2 hPa 0 mm - - -
1787807416 23.33° C 57% 1010.2 hPa 0 mm - - -
1787806816 23.89° C 55% 1010.1 hPa 0 mm - - -
1787806216 24.44° C 47% 1010.2 hPa 0 mm - - -
1787805616 25° C 44% 1010.1 hPa 0 mm - - -
1787805016 25.56° C 44% 1010 hPa 0 mm - - -
1787804416 26.11° C 42% 1010 hPa 0 mm - - -
1787803816 26.67° C 40% 1009.9 hPa 0 mm - - -
1787803216 27.22° C 40% 1009.8 hPa 0 mm - - -
1787802616 27.78° C 39% 1009.8 hPa 0 mm - - -
1787802016 28.33° C 39% 1009.6 hPa 0 mm - - -
1787801416 28.33° C 38% 1009.4 hPa 0 mm - - -
1787800816 28.89° C 37% 1009.4 hPa 0 mm - - -
1787800216 29.44° C 36% 1009.3 hPa 0 mm - - -
1787799616 29.44° C 36% 1009.3 hPa 0 mm - - -
1787799016 30° C 35% 1009.3 hPa 0 mm - - -
1787798416 31.11° C 33% 1009.2 hPa 0 mm - - -
1787797816 31.67° C 31% 1009.1 hPa 0 mm - - -
1787797216 32.78° C 28% 1009.1 hPa 0 mm - - -
1787796616 33.33° C 25% 1009.1 hPa 0 mm - - -
1787796016 33.89° C 23% 1009.1 hPa 0 mm - - -
1787795416 33.89° C 22% 1009.2 hPa 0 mm - - -
1787794816 34.44° C 23% 1009.3 hPa 0 mm - - -
1787794216 34.44° C 22% 1009.3 hPa 0 mm - - -

* Rain latest hour (hover to see other rain measurements)
** Current wind speed in m/s (hover to see current wind gust speed)